Satellite-Ground Cal/Val Site Overpasses Predictions

Prediction of Satellite NPP Overpassing Cal/Val Site: Antarctic Dome C

Ground Cal/Val Site Location: Latitude: -75.10, Longitude: 123.35; Satellite-Ground Site NADIR distance within 100 km.

Table of predicted overpasses for the next 14.0 days since TLE Epoch: 3/16/2024
Interval Starting Time Ending Time Minimum Distance Time Minimum Distance (km)
1 03/16/2024 14:49:09 03/16/2024 14:49:38 03/16/2024 14:49:23 15.83
2 03/18/2024 07:32:00 03/18/2024 07:32:29 03/18/2024 07:32:15 3.48
3 03/21/2024 14:55:31 03/21/2024 14:56:00 03/21/2024 14:55:45 21.62
4 03/22/2024 14:36:49 03/22/2024 14:37:04 03/22/2024 14:36:57 85.49
5 03/23/2024 07:38:23 03/23/2024 07:38:50 03/23/2024 07:38:36 39.37
6 03/24/2024 07:19:38 03/24/2024 07:19:58 03/24/2024 07:19:48 70.46
7 03/26/2024 15:01:54 03/26/2024 15:02:18 03/26/2024 15:02:06 59.25
8 03/27/2024 14:43:05 03/27/2024 14:43:30 03/27/2024 14:43:18 49.96
9 03/28/2024 07:44:48 03/28/2024 07:45:07 03/28/2024 07:44:57 75.10
